Hourly Weather Kleczanow

Today, 30 July, Friday

Time Temperature Precipitation Wind Pressure Humidity
00:00 +18°C° 0 mm 2 mps 737 mmHg 72%
01:00 +18°C° 0 mm 2 mps 737 mmHg 75%
02:00 +17°C° 0 mm 2 mps 737 mmHg 75%
03:00 +17°C° 0 mm 2 mps 737 mmHg 76%
04:00 +17°C° 0 mm 2 mps 737 mmHg 77%
05:00 +18°C° 0 mm 3 mps 737 mmHg 72%
06:00 +20°C° 0 mm 3 mps 737 mmHg 67%
07:00 +21°C° 0 mm 3 mps 737 mmHg 62%
08:00 +23°C° 0 mm 4 mps 737 mmHg 56%
09:00 +25°C° 0 mm 4 mps 737 mmHg 51%
10:00 +27°C° 0 mm 5 mps 737 mmHg 45%
11:00 +28°C° 0 mm 5 mps 737 mmHg 43%
12:00 +28°C° 0 mm 5 mps 736 mmHg 42%
13:00 +29°C° 0 mm 6 mps 736 mmHg 40%
14:00 +29°C° 0 mm 5 mps 736 mmHg 41%
15:00 +29°C° 0 mm 5 mps 736 mmHg 41%
16:00 +29°C° 0 mm 4 mps 735 mmHg 42%
17:00 +28°C° 0 mm 3 mps 735 mmHg 48%
18:00 +26°C° 0 mm 2 mps 735 mmHg 54%
19:00 +25°C° 0 mm 1 mps 735 mmHg 59%
20:00 +24°C° 0 mm 1 mps 735 mmHg 62%
21:00 +23°C° 0 mm 1 mps 735 mmHg 65%
22:00 +20°C° 0 mm 0 mps 735 mmHg 68%
23:00 +19°C° 0 mm 0 mps 735 mmHg 69%

Tomorrow, 31 July, Saturday

Time Temperature Precipitation Wind Pressure Humidity
00:00 +19°C° 0 mm 0 mps 735 mmHg 71%
01:00 +18°C° 0 mm 0 mps 735 mmHg 73%
02:00 +20°C° 0 mm 1 mps 734 mmHg 75%
03:00 +20°C° 0 mm 1 mps 734 mmHg 77%
04:00 +20°C° 0 mm 1 mps 734 mmHg 78%
05:00 +21°C° 0 mm 1 mps 734 mmHg 75%
06:00 +23°C° 0 mm 1 mps 734 mmHg 71%
07:00 +24°C° 0 mm 1 mps 735 mmHg 67%
08:00 +26°C° 0 mm 1 mps 734 mmHg 61%
09:00 +28°C° 0 mm 2 mps 734 mmHg 55%
10:00 +30°C° 0 mm 2 mps 734 mmHg 48%
11:00 +29°C° 0 mm 3 mps 734 mmHg 49%
12:00 +29°C° 0 mm 4 mps 733 mmHg 50%
13:00 +29°C° 0 mm 4 mps 733 mmHg 50%
14:00 +26°C° 0.7 mm 5 mps 733 mmHg 62%
15:00 +22°C° 0.7 mm 6 mps 734 mmHg 74%
16:00 +20°C° 0.7 mm 7 mps 734 mmHg 85%
17:00 +19°C° 0.4 mm 5 mps 734 mmHg 88%
18:00 +19°C° 0.4 mm 4 mps 734 mmHg 90%
19:00 +19°C° 0.4 mm 2 mps 734 mmHg 93%
20:00 +18°C° 0 mm 2 mps 735 mmHg 94%
21:00 +17°C° 0 mm 2 mps 735 mmHg 95%
22:00 +17°C° 0 mm 2 mps 735 mmHg 96%
23:00 +17°C° 0 mm 2 mps 735 mmHg 96%

Day after tomorrow, 1 August, Sunday

Time Temperature Precipitation Wind Pressure Humidity
00:00 +16°C° 0 mm 2 mps 735 mmHg 95%
01:00 +16°C° 0 mm 2 mps 735 mmHg 95%
02:00 +16°C° 0 mm 2 mps 735 mmHg 95%
03:00 +16°C° 0 mm 2 mps 735 mmHg 95%
04:00 +16°C° 0 mm 2 mps 735 mmHg 95%
05:00 +17°C° 0 mm 2 mps 735 mmHg 88%
06:00 +20°C° 0 mm 1 mps 735 mmHg 82%
07:00 +22°C° 0 mm 1 mps 735 mmHg 76%
08:00 +23°C° 0 mm 2 mps 735 mmHg 68%
09:00 +25°C° 0 mm 2 mps 735 mmHg 61%
10:00 +27°C° 0 mm 3 mps 735 mmHg 53%
11:00 +27°C° 0.1 mm 3 mps 734 mmHg 51%
12:00 +28°C° 0.1 mm 3 mps 734 mmHg 50%
13:00 +28°C° 0.1 mm 4 mps 734 mmHg 49%
14:00 +29°C° 0.1 mm 3 mps 733 mmHg 48%
15:00 +29°C° 0.1 mm 3 mps 732 mmHg 47%
16:00 +30°C° 0.1 mm 2 mps 732 mmHg 46%
17:00 +27°C° 3.1 mm 3 mps 732 mmHg 62%
18:00 +22°C° 3.1 mm 4 mps 732 mmHg 77%
19:00 +19°C° 3.1 mm 5 mps 732 mmHg 93%
20:00 +18°C° 0.4 mm 4 mps 732 mmHg 94%
21:00 +17°C° 0.4 mm 3 mps 733 mmHg 94%
22:00 +17°C° 0.4 mm 2 mps 734 mmHg 95%
23:00 +16°C° 0.1 mm 2 mps 733 mmHg 95%

2 August, Monday

Time Temperature Precipitation Wind Pressure Humidity
00:00 +16°C° 0.1 mm 3 mps 733 mmHg 95%
01:00 +16°C° 0.1 mm 3 mps 733 mmHg 94%
02:00 +16°C° 0.1 mm 3 mps 733 mmHg 94%
03:00 +14°C° 0.1 mm 4 mps 734 mmHg 93%
04:00 +14°C° 0.1 mm 4 mps 734 mmHg 93%
05:00 +14°C° 0.3 mm 4 mps 734 mmHg 92%
06:00 +14°C° 0.3 mm 3 mps 735 mmHg 92%
07:00 +14°C° 0.3 mm 3 mps 735 mmHg 92%
08:00 +17°C° 0 mm 3 mps 736 mmHg 85%
09:00 +18°C° 0 mm 3 mps 736 mmHg 79%
10:00 +19°C° 0 mm 4 mps 736 mmHg 72%
11:00 +21°C° 0 mm 4 mps 736 mmHg 65%
12:00 +22°C° 0 mm 4 mps 736 mmHg 57%
13:00 +25°C° 0 mm 5 mps 736 mmHg 49%
14:00 +23°C° 0 mm 4 mps 736 mmHg 52%
15:00 +23°C° 0 mm 4 mps 736 mmHg 54%
16:00 +22°C° 0 mm 3 mps 737 mmHg 57%
17:00 +22°C° 0 mm 3 mps 737 mmHg 60%
18:00 +21°C° 0 mm 2 mps 737 mmHg 63%
19:00 +20°C° 0 mm 2 mps 736 mmHg 67%
20:00 +19°C° 0 mm 2 mps 737 mmHg 68%
21:00 +18°C° 0 mm 2 mps 737 mmHg 70%
22:00 +18°C° 0 mm 2 mps 737 mmHg 72%
23:00 +17°C° 0.1 mm 2 mps 738 mmHg 75%

3 August, Tuesday

Time Temperature Precipitation Wind Pressure Humidity
00:00 +16°C° 0.1 mm 2 mps 738 mmHg 79%
01:00 +15°C° 0.1 mm 2 mps 738 mmHg 83%
02:00 +15°C° 0.1 mm 2 mps 738 mmHg 84%
03:00 +15°C° 0.1 mm 2 mps 739 mmHg 85%
04:00 +14°C° 0.1 mm 2 mps 739 mmHg 86%
05:00 +16°C° 0 mm 2 mps 739 mmHg 81%
06:00 +17°C° 0 mm 3 mps 739 mmHg 75%
07:00 +18°C° 0 mm 3 mps 740 mmHg 70%
08:00 +20°C° 0 mm 4 mps 740 mmHg 62%
09:00 +21°C° 0 mm 4 mps 740 mmHg 54%
10:00 +22°C° 0 mm 4 mps 740 mmHg 46%
11:00 +23°C° 0 mm 4 mps 740 mmHg 44%
12:00 +25°C° 0 mm 4 mps 740 mmHg 42%
13:00 +25°C° 0 mm 4 mps 740 mmHg 40%
14:00 +25°C° 0 mm 4 mps 740 mmHg 40%
15:00 +25°C° 0 mm 3 mps 739 mmHg 40%
16:00 +25°C° 0 mm 3 mps 739 mmHg 40%
17:00 +24°C° 0 mm 2 mps 739 mmHg 45%
18:00 +21°C° 0 mm 2 mps 739 mmHg 51%
19:00 +20°C° 0 mm 1 mps 739 mmHg 57%
20:00 +20°C° 0 mm 1 mps 739 mmHg 59%
21:00 +18°C° 0 mm 2 mps 739 mmHg 60%
22:00 +17°C° 0 mm 2 mps 739 mmHg 62%
23:00 +16°C° 0 mm 2 mps 739 mmHg 64%

4 August, Wednesday

Time Temperature Precipitation Wind Pressure Humidity
00:00 +16°C° 0 mm 2 mps 739 mmHg 65%
01:00 +15°C° 0 mm 2 mps 739 mmHg 67%
02:00 +15°C° 0 mm 2 mps 739 mmHg 70%
03:00 +15°C° 0 mm 2 mps 739 mmHg 72%
04:00 +15°C° 0 mm 2 mps 739 mmHg 75%
05:00 +16°C° 0 mm 2 mps 739 mmHg 73%
06:00 +17°C° 0 mm 3 mps 739 mmHg 71%
07:00 +19°C° 0 mm 3 mps 739 mmHg 69%
08:00 +20°C° 0 mm 3 mps 738 mmHg 66%
09:00 +21°C° 0 mm 4 mps 738 mmHg 63%
10:00 +23°C° 0 mm 4 mps 738 mmHg 60%
11:00 +22°C° 0.3 mm 3 mps 738 mmHg 67%
12:00 +21°C° 0.3 mm 2 mps 738 mmHg 73%
13:00 +21°C° 0.3 mm 1 mps 738 mmHg 80%
14:00 +21°C° 0.3 mm 1 mps 738 mmHg 81%
15:00 +20°C° 0.3 mm 2 mps 738 mmHg 82%
16:00 +20°C° 0.3 mm 2 mps 738 mmHg 83%
17:00 +19°C° 0.2 mm 2 mps 738 mmHg 86%
18:00 +19°C° 0.2 mm 2 mps 738 mmHg 89%
19:00 +18°C° 0.2 mm 3 mps 738 mmHg 92%
20:00 +17°C° 0 mm 2 mps 738 mmHg 93%
21:00 +17°C° 0 mm 2 mps 738 mmHg 94%
22:00 +16°C° 0 mm 2 mps 738 mmHg 95%
23:00 +16°C° 0 mm 2 mps 738 mmHg 95%
Show more